Regional Weather Roundup
Issued by NWS

Home | Current Version | Previous Version | Graphics & Text | Print | Product List | Glossary On
Versions: 1 2 3 4 5 6 7 8 9 10 11 12 13 14 15 16 17 18 19 20 21 22 23 24 25 26 27 28 29 30 31 32 33 34 35 36 37 38 39 40 41 42 43 44 45 46 47 48 49 50
000
ASUS43 KDTX 270510
RWRMI
MICHIGAN HOURLY REGIONAL WEATHER ROUNDUP
NATIONAL WEATHER SERVICE DETROIT/PONTIAC MI
100 AM EDT MON APR 27 2015

NOTE: "FAIR" INDICATES FEW OR NO CLOUDS BELOW 12,000 FEET WITH NO
SIGNIFICANT WEATHER AND/OR OBSTRUCTION TO VISIBILITY.

MIZ047>049-052>055-059>063-066>070-074>076-081>083-270600-
SOUTHEAST LOWER MICHIGAN

CITY           SKY/WX    TMP DP  RH WIND       PRES   REMARKS
ADRIAN         CLOUDY    45  33  63 E6        29.96R
ALMA           CLEAR     39  33  77 NW5       29.98R
ANN ARBOR      PTCLDY    33  29  85 CALM      29.95R
BAD AXE        CLOUDY    44  33  65 N14G22    29.93S
CARO           CLOUDY    44  37  74 CALM      29.93S
DETROIT CITY   CLEAR     41  30  65 W5        29.93F
DETROIT        CLEAR     44  31  60 W3        29.95S
FLINT          CLEAR     37  30  75 W5        29.95S WCI  33
HILLSDALE      MOCLDY    48  30  49 NE10      29.94R
HOWELL         CLEAR     40  30  67 CALM      29.95S

CITY           SKY/WX    TMP DP  RH WIND       PRES   REMARKS
JACKSON        PTCLDY    44  30  57 NE6       29.96R
LAMBERTVILLE   MOCLDY    45  32  61 CALM      29.96R
LANSING        CLEAR     39  31  72 N6        29.97S WCI  35
LAPEER         CLOUDY    36  33  89 CALM      29.94R
MASON          CLEAR     41  31  66 CALM      29.96S
MONROE         PTCLDY    37  32  81 CALM      29.94R
PONTIAC        CLEAR     39  30  70 W6        29.92F WCI  35
PORT HOPE        N/A     42  35  76 N9        29.92R
PORT HURON     CLOUDY    39  34  81 CALM      29.92R
TRI CITIES     CLOUDY    44  34  67 NW12      29.96S
MIDLAND        CLOUDY    41  32  70 CALM      29.96S
TROY           CLEAR     42  31  66 NW3       29.94S
SAGINAW HB     CLOUDY    43  36  75 NW7       29.95S
$$
MIZ043>046-050>051-056>058-064>065-071>073-077>080-270600-
SOUTHWEST LOWER MICHIGAN

CITY           SKY/WX    TMP DP  RH WIND       PRES   REMARKS
BATTLE CREEK   CLEAR     45  30  55 N9        29.97R
BENTON HARBOR  CLEAR     41  33  73 VRB3      29.99S
BIG RAPIDS     CLOUDY    41  31  67 N7        29.99S
COLDWATER      CLEAR     45  29  53 N9        29.95R
FREMONT        FAIR      41  28  60 N5        30.01S
HOLLAND        CLEAR     46  31  55 N8        30.01R
GRAND RAPIDS   CLEAR     43  29  57 N9        29.99R
IONIA          FAIR      43  31  63 N10       29.97S
KALAMAZOO      CLEAR     41  29  62 N6        29.97R
LUDINGTON      CLOUDY    43  31  62 N9G18     30.04S
MARSHALL       CLEAR     44  30  58 CALM      29.95S
MOUNT PLEASANT PTCLDY    42  32  69 NW6       29.97S
MUSKEGON       CLEAR     43  31  62 N9        30.02R
SOUTH HAVEN    CLEAR     43  31  62 N6        29.99S
$$
MIZ016>042-270600-
NORTHERN LOWER MICHIGAN

CITY           SKY/WX    TMP DP  RH WIND       PRES   REMARKS
BEAVER ISLAND  CLOUDY    40  33  75 N7        30.04F
BELLAIRE       CLOUDY    42  32  68 N7        30.01S
CADILLAC       CLOUDY    39  30  69 N7        29.98S WCI  34
CHARLEVOIX     CLOUDY    38  33  81 N6        30.05F WCI  34
FRANKFORT      CLOUDY    43  29  59 N8        30.05S
GAYLORD        CLOUDY    40  33  76 N8        29.97F WCI  34
GRAYLING       CLOUDY    41  31  66 NW3       29.98S
HARBOR SPRINGS MOCLDY    40  33  74 N5        30.01S
HOUGHTON LAKE  CLOUDY    41  30  65 NW7       29.97S
MANISTEE       CLOUDY    41  30  65 NW8       30.04S
OSCODA         CLOUDY    44  35  69 N12       29.94S
PELLSTON       CLOUDY    42  34  73 N7        30.02S
ROGERS CITY    CLOUDY    40  35  81 NW10      30.00S WCI  34
TRAVERSE CITY  CLOUDY    42  31  64 NW8       30.02S
$$
MIZ007>008-015-270600-
EASTERN UPPER MICHIGAN

CITY           SKY/WX    TMP DP  RH WIND       PRES   REMARKS
KINROSS        CLOUDY    37  36  93 NW8       30.01S WCI  31
MACKINAC ISLAN CLOUDY    40  34  76 N10       30.01S WCI  34
NEWBERRY       CLOUDY    39  34  81 N10G17    30.04S WCI  32
S. S. MARIE    MOCLDY    41  32  70 N8        30.01S
MUNISING         N/A     37  31  78 N5        30.10S WCI  33
$$
MIZ004>006-011>014-085-270600-
CENTRAL UPPER MICHIGAN

CITY           SKY/WX    TMP DP  RH WIND       PRES   REMARKS
MANISTIQUE     CLOUDY    40  33  75 N8        30.06S WCI  35
ESCANABA       MOCLDY    41  27  56 NW5       30.09R
MENOMINEE      CLEAR     41  27  56 N8        30.09S
SAWYER-GWINN   CLEAR     42  29  58 N14       30.08S
$$
MIZ001>003-009>011-084-270600-
WESTERN UPPER MICHIGAN

CITY           SKY/WX    TMP DP  RH WIND       PRES   REMARKS
IRON MOUNTAIN  CLEAR     40  27  59 NW7       30.09S
HOUGHTON       CLEAR     36  28  73 NW13      30.14R WCI  27
COPPER HARBOR    N/A     42  30  62 N14       30.14R
IRONWOOD       CLEAR     32  30  93 CALM      30.15R
$$

ABBREVIATIONS USED IN REMARKS
   TC - TEMPERATURE IN CELSIUS
  WCI - WIND CHILL INDEX
   HX - HEAT INDEX
  VSB - VISIBILITY




USA.gov is the U.S. government's official web portal to all federal, state and local government web resources and services.